KD6VEX-1 Weather Reports


time (UTC)temp
F
wind
direction
speed
knots
gust
knots
rain 1hr
in
rain 24hr
in
rain mn
in
humidity
%
barometer
mb
20260506185340 74 96 0.9 3.5 0.00 0.00 0.00 49 1017.8
20260506184840 74 0 0.0 4.3 0.00 0.00 0.00 50 1017.9
20260506184340 73 112 1.7 4.3 0.00 0.00 0.00 52 1018.0
20260506183841 73 111 0.9 4.3 0.00 0.00 0.00 52 1018.0
20260506183340 73 115 0.9 3.5 0.00 0.00 0.00 52 1018.1
20260506182840 72 0 0.0 3.5 0.00 0.00 0.00 54 1018.0
20260506182341 72 107 0.9 4.3 0.00 0.00 0.00 55 1018.2
20260506181840 71 51 0.9 4.3 0.00 0.00 0.00 54 1018.3
20260506181340 71 93 0.9 3.5 0.00 0.00 0.00 55 1018.3
20260506180842 71 91 0.9 2.6 0.00 0.00 0.00 54 1018.4
20260506175840 70 0 0.0 3.5 0.00 0.00 0.00 54 1018.5
20260506175340 70 0 0.0 3.5 0.00 0.00 0.00 55 1018.4
20260506174840 70 0 0.0 2.6 0.00 0.00 0.00 56 1018.4
20260506174340 69 0 0.0 1.7 0.00 0.00 0.00 58 1018.4
20260506173841 68 0 0.0 3.5 0.00 0.00 0.00 57 1018.4
20260506173340 67 109 0.9 3.5 0.00 0.00 0.00 59 1018.4
20260506172840 68 123 0.9 3.5 0.00 0.00 0.00 59 1018.5
20260506172340 68 51 0.9 2.6 0.00 0.00 0.00 60 1018.4
20260506171840 67 0 0.0 1.7 0.00 0.00 0.00 60 1018.5
20260506171340 66 0 0.0 1.7 0.00 0.00 0.00 62 1018.6
20260506170840 66 0 0.0 2.6 0.00 0.00 0.00 62 1018.5
20260506170340 65 41 0.9 2.6 0.00 0.00 0.00 64 1018.5
20260506165840 64 0 0.0 2.6 0.00 0.00 0.00 65 1018.5
20260506165340 64 53 0.9 2.6 0.00 0.00 0.00 65 1018.5
20260506164841 64 45 0.9 2.6 0.00 0.00 0.00 66 1018.5
20260506164340 63 0 0.0 1.7 0.00 0.00 0.00 66 1018.5
20260506163840 63 0 0.0 1.7 0.00 0.00 0.00 67 1018.4
20260506163341 63 0 0.0 2.6 0.00 0.00 0.00 68 1018.4
20260506162840 63 77 0.9 3.5 0.00 0.00 0.00 68 1018.5
20260506162340 62 0 0.0 3.5 0.00 0.00 0.00 69 1018.5
20260506161840 61 0 0.0 3.5 0.00 0.00 0.00 71 1018.5
20260506161340 61 0 0.0 3.5 0.00 0.00 0.00 71 1018.7
20260506160840 61 0 0.0 1.7 0.00 0.00 0.00 72 1018.7
20260506160340 60 0 0.0 2.6 0.00 0.00 0.00 72 1018.6
20260506155840 60 0 0.0 2.6 0.00 0.00 0.00 73 1018.7
20260506155340 59 0 0.0 1.7 0.00 0.00 0.00 75 1018.7
20260506154840 59 0 0.0 1.7 0.00 0.00 0.00 76 1018.7
20260506154340 58 0 0.0 1.7 0.00 0.00 0.00 77 1018.6
20260506153340 56 0 0.0 0.9 0.00 0.00 0.00 79 1018.6
20260506152840 56 0 0.0 0.9 0.00 0.00 0.00 80 1018.5
20260506152340 56 0 0.0 1.7 0.00 0.00 0.00 81 1018.6
20260506151840 56 0 0.0 1.7 0.00 0.00 0.00 82 1018.7
20260506151340 55 0 0.0 1.7 0.00 0.00 0.00 82 1018.8
20260506150840 55 0 0.0 1.7 0.00 0.00 0.00 83 1018.8
20260506150340 55 0 0.0 1.7 0.00 0.00 0.00 83 1018.7
20260506145840 55 0 0.0 1.7 0.00 0.00 0.00 83 1018.7
20260506145340 54 0 0.0 1.7 0.00 0.00 0.00 84 1018.6
20260506144840 54 0 0.0 0.9 0.00 0.00 0.00 84 1018.6
20260506144340 54 0 0.0 0.9 0.00 0.00 0.00 84 1018.6
20260506143840 54 0 0.0 0.9 0.00 0.00 0.00 84 1018.6
20260506143340 54 0 0.0 0.9 0.00 0.00 0.00 84 1018.6
20260506142840 54 0 0.0 0.9 0.00 0.00 0.00 84 1018.5
20260506142340 54 0 0.0 0.9 0.00 0.00 0.00 84 1018.4
20260506141840 54 0 0.0 0.9 0.00 0.00 0.00 85 1018.5
20260506141340 53 0 0.0 0.9 0.00 0.00 0.00 85 1018.4
20260506140840 53 0 0.0 0.9 0.00 0.00 0.00 85 1018.4
20260506140340 53 0 0.0 0.9 0.00 0.00 0.00 86 1018.4
20260506135840 53 0 0.0 0.9 0.00 0.00 0.00 86 1018.3
20260506135340 53 0 0.0 0.9 0.00 0.00 0.00 86 1018.3
20260506134840 53 0 0.0 0.0 0.00 0.00 0.00 87 1018.2
20260506134340 52 0 0.0 0.0 0.00 0.00 0.00 87 1018.3
20260506133840 52 0 0.0 0.0 0.00 0.00 0.00 87 1018.3
20260506133340 52 0 0.0 0.0 0.00 0.00 0.00 87 1018.3
20260506132840 52 0 0.0 0.9 0.00 0.00 0.00 87 1018.2
20260506132340 52 0 0.0 0.9 0.00 0.00 0.00 87 1018.1
20260506131840 52 0 0.0 0.0 0.00 0.00 0.00 87 1018.1
20260506131340 52 0 0.0 0.9 0.00 0.00 0.00 87 1018.1
20260506130840 52 0 0.0 0.9 0.00 0.00 0.00 87 1018.0
20260506130340 52 0 0.0 0.0 0.00 0.00 0.00 86 1018.0
20260506125840 52 0 0.0 0.0 0.00 0.00 0.00 85 1017.9
20260506125340 52 0 0.0 0.0 0.00 0.00 0.00 85 1017.8
20260506124840 53 0 0.0 0.0 0.00 0.00 0.00 85 1017.9
20260506124340 53 0 0.0 0.9 0.00 0.00 0.00 85 1017.8
20260506123840 53 0 0.0 0.9 0.00 0.00 0.00 85 1017.8
20260506123340 53 0 0.0 0.9 0.00 0.00 0.00 85 1017.9
20260506122840 53 0 0.0 0.9 0.00 0.00 0.00 85 1017.9
20260506122340 53 0 0.0 1.7 0.00 0.00 0.00 85 1017.8
20260506121840 53 0 0.0 1.7 0.00 0.00 0.00 85 1017.9
20260506121340 53 0 0.0 1.7 0.00 0.00 0.00 86 1017.9
20260506120840 53 0 0.0 0.0 0.00 0.00 0.00 86 1017.8
20260506120340 53 0 0.0 0.0 0.00 0.00 0.00 86 1017.8
20260506115840 53 0 0.0 0.0 0.00 0.00 0.00 86 1017.9
20260506115340 53 0 0.0 0.9 0.00 0.00 0.00 86 1017.9
20260506114840 53 0 0.0 0.9 0.00 0.00 0.00 86 1018.0
20260506114340 53 0 0.0 0.0 0.00 0.00 0.00 85 1018.1
20260506113840 53 0 0.0 0.9 0.00 0.00 0.00 85 1018.1
20260506113340 53 0 0.0 0.9 0.00 0.00 0.00 85 1018.0
20260506112840 53 0 0.0 0.9 0.00 0.00 0.00 85 1017.9
20260506112340 53 0 0.0 0.0 0.00 0.00 0.00 85 1018.0
20260506111840 53 0 0.0 0.0 0.00 0.00 0.00 85 1018.0
20260506111340 53 0 0.0 0.9 0.00 0.00 0.00 86 1018.0
20260506110840 53 0 0.0 0.9 0.00 0.00 0.00 86 1017.9
20260506110340 53 0 0.0 0.9 0.00 0.00 0.00 86 1018.0
20260506105841 53 0 0.0 0.0 0.00 0.00 0.00 86 1018.0
20260506105340 53 0 0.0 0.0 0.00 0.00 0.00 86 1018.0
20260506104840 53 0 0.0 0.9 0.00 0.00 0.00 86 1018.0
20260506104340 53 0 0.0 0.9 0.00 0.00 0.00 86 1018.0
20260506103840 53 0 0.0 0.0 0.00 0.00 0.00 86 1017.9
20260506103340 53 0 0.0 0.0 0.00 0.00 0.00 86 1017.9
20260506102840 53 0 0.0 0.9 0.00 0.00 0.00 85 1017.9
20260506102340 53 0 0.0 0.9 0.00 0.00 0.00 85 1017.9
20260506101840 53 0 0.0 0.9 0.00 0.00 0.00 85 1017.9
20260506101340 53 0 0.0 0.9 0.00 0.00 0.00 86 1017.9
20260506100340 54 0 0.0 0.9 0.00 0.00 0.00 85 1017.9
20260506095840 54 0 0.0 0.0 0.00 0.00 0.00 85 1017.8
20260506095340 54 0 0.0 0.0 0.00 0.00 0.00 85 1017.8
20260506094840 54 0 0.0 0.9 0.00 0.00 0.00 85 1017.9
20260506094340 54 0 0.0 0.9 0.00 0.00 0.00 86 1017.9
20260506093840 54 0 0.0 0.9 0.00 0.00 0.00 86 1017.9
20260506093340 54 0 0.0 0.9 0.00 0.00 0.00 86 1017.9
20260506092840 54 0 0.0 0.9 0.00 0.00 0.00 86 1017.9
20260506092340 54 0 0.0 0.9 0.00 0.00 0.00 86 1017.8
20260506091840 54 0 0.0 0.9 0.00 0.00 0.00 86 1017.9
20260506091341 54 0 0.0 0.9 0.00 0.00 0.00 86 1018.0
20260506090840 53 0 0.0 0.9 0.00 0.00 0.00 86 1018.0
20260506090340 53 0 0.0 0.9 0.00 0.00 0.00 86 1018.0
20260506085840 53 0 0.0 0.9 0.00 0.00 0.00 86 1018.0
20260506085340 53 0 0.0 1.7 0.00 0.00 0.00 86 1018.2
20260506084840 53 0 0.0 1.7 0.00 0.00 0.00 87 1018.2
20260506084340 53 0 0.0 1.7 0.00 0.00 0.00 87 1018.2
20260506083840 53 0 0.0 1.7 0.00 0.00 0.00 87 1018.2
20260506083340 53 0 0.0 1.7 0.00 0.00 0.00 87 1018.3
20260506082840 53 0 0.0 0.0 0.00 0.00 0.00 87 1018.2
20260506082340 52 0 0.0 0.9 0.00 0.00 0.00 87 1018.3
20260506081842 52 0 0.0 0.9 0.00 0.00 0.00 87 1018.2
20260506081340 52 0 0.0 0.9 0.00 0.00 0.00 87 1018.2
20260506080840 52 0 0.0 0.9 0.00 0.00 0.00 87 1018.2
20260506080340 52 0 0.0 0.9 0.00 0.00 0.00 86 1018.2
20260506073340 52 0 0.0 0.0 0.00 0.00 0.00 89 1018.1
20260506072841 51 0 0.0 0.0 0.00 0.00 0.00 90 1018.1
20260506072340 51 0 0.0 0.0 0.00 0.00 0.00 90 1018.1
20260506071840 51 0 0.0 0.0 0.00 0.00 0.00 89 1018.0
20260506070840 50 0 0.0 0.0 0.00 0.00 0.00 89 1018.0
20260506062225 52 0 0.0 0.0 0.00 0.00 0.00 87 1017.6
20260506061725 52 0 0.0 0.0 0.00 0.00 0.00 86 1017.7
20260506061225 52 0 0.0 0.0 0.00 0.00 0.00 86 1017.7
20260506060725 52 0 0.0 0.9 0.00 0.00 0.00 85 1017.6
20260506060225 52 0 0.0 0.9 0.00 0.00 0.00 85 1017.6
20260506051035 54 0 0.0 0.9 0.00 0.00 0.00 83 1017.3
20260506050536 54 0 0.0 0.9 0.00 0.00 0.00 82 1017.4
20260506045036 55 0 0.0 0.9 0.00 0.00 0.00 81 1017.1
20260506044535 55 0 0.0 0.9 0.00 0.00 0.00 81 1017.1
20260506044035 55 0 0.0 1.7 0.00 0.00 0.00 80 1017.0
20260506043535 55 0 0.0 3.5 0.00 0.00 0.00 80 1016.9
20260506043035 55 0 0.0 3.5 0.00 0.00 0.00 80 1016.8
20260506042535 55 0 0.0 0.9 0.00 0.00 0.00 79 1016.8
20260506042035 55 0 0.0 3.5 0.00 0.00 0.00 79 1016.7
20260506041535 56 0 0.0 3.5 0.00 0.00 0.00 78 1016.7
20260506041035 56 0 0.0 0.9 0.00 0.00 0.00 77 1016.6
20260506040535 56 0 0.0 1.7 0.00 0.00 0.00 77 1016.5
20260506040035 57 0 0.0 2.6 0.00 0.00 0.00 76 1016.4
20260506035535 57 0 0.0 2.6 0.00 0.00 0.00 76 1016.3
20260506035035 57 0 0.0 2.6 0.00 0.00 0.00 75 1016.2
20260506034535 57 0 0.0 2.6 0.00 0.00 0.00 75 1016.1
20260506034036 57 0 0.0 2.6 0.00 0.00 0.00 74 1016.0
20260506033535 58 0 0.0 4.3 0.00 0.00 0.00 74 1015.9
20260506033035 58 86 0.9 4.3 0.00 0.00 0.00 73 1015.9
20260506032535 58 0 0.0 2.6 0.00 0.00 0.00 72 1015.7
20260506032035 59 0 0.0 4.3 0.00 0.00 0.00 71 1015.6
20260506031535 59 104 0.9 4.3 0.00 0.00 0.00 71 1015.5
20260506031035 59 0 0.0 3.5 0.00 0.00 0.00 70 1015.4
20260506030536 59 174 0.9 3.5 0.00 0.00 0.00 70 1015.4
20260506030035 60 0 0.0 3.5 0.00 0.00 0.00 69 1015.3
20260506025535 60 0 0.0 2.6 0.00 0.00 0.00 68 1015.2
20260506025036 60 0 0.0 2.6 0.00 0.00 0.00 67 1015.1
20260506024535 60 0 0.0 3.5 0.00 0.00 0.00 67 1015.0
20260506024035 61 0 0.0 4.3 0.00 0.00 0.00 66 1014.9
20260506023535 61 0 0.0 4.3 0.00 0.00 0.00 66 1014.8
20260506023035 61 0 0.0 4.3 0.00 0.00 0.00 65 1014.7
20260506022535 61 97 0.9 4.3 0.00 0.00 0.00 65 1014.7
20260506022036 62 105 1.7 4.3 0.00 0.00 0.00 63 1014.6
20260506021537 63 59 0.9 5.2 0.00 0.00 0.00 62 1014.6
20260506021035 63 90 0.9 5.2 0.00 0.00 0.00 62 1014.7
20260506020537 63 163 0.9 3.5 0.00 0.00 0.00 61 1014.6
20260506020035 64 0 0.0 3.5 0.00 0.00 0.00 61 1014.5
20260506015535 64 358 1.7 5.2 0.00 0.00 0.00 60 1014.5
20260506015036 64 0 0.0 5.2 0.00 0.00 0.00 60 1014.3
20260506014535 65 97 0.9 4.3 0.00 0.00 0.00 57 1014.3
20260506014035 67 4 0.9 6.1 0.00 0.00 0.00 55 1014.2
20260506013537 67 0 0.0 6.1 0.00 0.00 0.00 55 1014.2
20260506013035 67 105 0.9 3.5 0.00 0.00 0.00 54 1014.1
20260506012537 68 78 1.7 3.5 0.00 0.00 0.00 52 1014.3
20260506011535 68 74 0.9 5.2 0.00 0.00 0.00 52 1014.2
20260506011035 68 128 0.9 5.2 0.00 0.00 0.00 52 1014.3
20260506010537 68 91 1.7 5.2 0.00 0.00 0.00 52 1014.3
20260506010035 68 128 0.9 5.2 0.00 0.00 0.00 52 1014.2
20260506005535 69 109 0.9 6.1 0.00 0.00 0.00 51 1014.1
20260506005036 69 93 1.7 6.1 0.00 0.00 0.00 50 1014.1
20260506004535 69 115 0.9 7.0 0.00 0.00 0.00 50 1014.1
20260506004035 70 117 0.9 7.0 0.00 0.00 0.00 49 1014.0
20260506003536 70 103 0.9 5.2 0.00 0.00 0.00 50 1013.9
20260506003035 70 5 0.9 5.2 0.00 0.00 0.00 49 1014.0
20260506002535 70 93 0.9 7.0 0.00 0.00 0.00 49 1014.0
20260506001535 70 115 0.9 6.1 0.00 0.00 0.00 49 1013.8
20260506001035 70 45 1.7 6.1 0.00 0.00 0.00 48 1013.8
20260506000536 70 110 1.7 8.7 0.00 0.00 0.00 48 1013.8
20260506000035 70 23 2.6 8.7 0.00 0.00 0.00 47 1013.7
20260505235535 71 105 1.7 4.3 0.00 0.00 0.00 47 1013.6
20260505235036 70 103 0.9 4.3 0.00 0.00 0.00 48 1013.7
20260505234535 70 112 1.7 4.3 0.00 0.00 0.00 48 1013.7
20260505234035 70 70 0.9 2.6 0.00 0.00 0.00 46 1013.8
20260505233445 71 86 1.7 5.2 0.00 0.00 0.00 46 1013.8
20260505232940 71 112 0.9 4.3 0.00 0.00 0.00 45 1013.8
20260505232442 71 94 0.9 4.3 0.00 0.00 0.00 45 1013.9
20260505231942 71 95 0.9 5.2 0.00 0.00 0.00 45 1013.8
20260505231442 71 0 0.0 5.2 0.00 0.00 0.00 46 1013.9
20260505230941 70 124 1.7 7.8 0.00 0.00 0.00 46 1014.0
20260505230442 71 108 1.7 7.8 0.00 0.00 0.00 46 1014.1
20260505225616 71 127 0.9 5.2 0.00 0.00 0.00 47 1014.0
20260505225116 70 104 1.7 5.2 0.00 0.00 0.00 47 1014.0
20260505224616 70 119 1.7 4.3 0.00 0.00 0.00 48 1014.0
20260505224116 70 103 0.9 5.2 0.00 0.00 0.00 47 1014.1
20260505223116 70 105 1.7 6.1 0.00 0.00 0.00 47 1014.1
20260505222616 71 67 1.7 5.2 0.00 0.00 0.00 48 1013.9
20260505222116 70 58 0.9 4.3 0.00 0.00 0.00 49 1014.1
20260505221616 70 114 0.9 4.3 0.00 0.00 0.00 49 1014.2
20260505220541 68 120 0.9 4.3 0.00 0.00 0.00 52 1014.3
20260505220041 67 64 0.9 4.3 0.00 0.00 0.00 52 1014.3
20260505215541 67 101 0.9 6.1 0.00 0.00 0.00 52 1014.4
20260505215041 67 73 0.9 6.1 0.00 0.00 0.00 52 1014.3
20260505214541 67 71 1.7 9.6 0.00 0.00 0.00 51 1014.4
20260505214041 67 146 0.9 9.6 0.00 0.00 0.00 52 1014.4
20260505213542 68 91 0.9 6.1 0.00 0.00 0.00 51 1014.4
20260505213041 68 113 1.7 7.8 0.00 0.00 0.00 50 1014.4
20260505212541 68 120 1.7 7.8 0.00 0.00 0.00 51 1014.4
20260505211541 69 69 2.6 10.4 0.00 0.00 0.00 50 1014.3
20260505211041 69 130 1.7 7.8 0.00 0.00 0.00 50 1014.4
20260505210541 69 118 1.7 6.1 0.00 0.00 0.00 49 1014.2
20260505210041 70 176 0.9 4.3 0.00 0.00 0.00 49 1014.3
20260505205541 70 118 1.7 5.2 0.00 0.00 0.00 49 1014.3
20260505205042 69 308 0.9 5.2 0.00 0.00 0.00 49 1014.3
20260505204146 71 351 2.6 8.7 0.00 0.00 0.00 46 1014.3
20260505203648 72 206 1.7 7.8 0.00 0.00 0.00 46 1014.3
20260505203146 71 42 0.9 7.8 0.00 0.00 0.00 46 1014.3
20260505202646 73 90 1.7 8.7 0.00 0.00 0.00 42 1014.3
20260505202146 72 92 2.6 8.7 0.00 0.00 0.00 44 1014.4
20260505201646 72 134 0.9 6.1 0.00 0.00 0.00 44 1014.4
20260505201146 71 86 0.9 7.0 0.00 0.00 0.00 46 1014.5
20260505200646 71 338 1.7 7.0 0.00 0.00 0.00 46 1014.4
20260505200146 70 350 1.7 8.7 0.00 0.00 0.00 47 1014.5
20260505195646 70 77 1.7 8.7 0.00 0.00 0.00 47 1014.6
20260505195146 70 139 0.9 6.1 0.00 0.00 0.00 48 1014.6
20260505194646 69 109 1.7 6.1 0.00 0.00 0.00 48 1014.6
20260505194146 69 344 0.9 6.1 0.00 0.00 0.00 48 1014.6
20260505193648 69 50 1.7 6.1 0.00 0.00 0.00 49 1014.7
20260505193146 68 123 0.9 5.2 0.00 0.00 0.00 48 1014.7
20260505192646 68 181 1.7 6.1 0.00 0.00 0.00 48 1014.8
20260505192146 68 103 1.7 6.1 0.00 0.00 0.00 51 1014.7
20260505191542 68 70 0.9 5.2 0.00 0.00 0.00 51 1014.6
20260505191042 69 59 1.7 8.7 0.00 0.00 0.00 49 1014.6
20260505190542 68 75 1.7 8.7 0.00 0.00 0.00 52 1014.7
20260505185542 68 93 0.9 4.3 0.00 0.00 0.00 48 1014.7